Theta_e
303 303 306 305 306 295 298 300 296 298 302 301 297 299 299 295 292 290 295 298 297 301 305 307 315 313 313 318 318 319 319 320 321 323 325 327 330 333 334 335 337 339 340 341 341 342 343 344 345 346 347 348 349 349 348 348 347 343 339 337 334 333 332
303 306 306 306 307 304 298 296 298 301 304 300 297 291 292 290 287 289 294 295 294 297 294 306 314 312 314 316 316 318 318 319 320 323 325 326 328 332 335 336 337 339 340 341 341 342 343 344 345 346 347 348 349 349 349 348 346 342 339 337 334 332 332
303 305 304 303 305 307 305 303 303 301 293 295 294 293 289 287 288 287 291 294 295 296 297 304 309 311 312 314 316 316 317 319 320 322 324 325 328 331 333 334 336 338 339 340 341 342 343 344 345 346 347 348 349 349 349 348 346 344 340 338 335 334 333
302 303 301 297 301 303 305 303 301 304 300 294 294 295 293 293 286 288 288 291 294 300 298 305 307 312 313 314 314 316 318 319 321 322 323 324 326 329 332 333 335 337 339 340 341 341 342 343 344 345 346 347 348 348 348 347 347 344 340 337 337 334 333
302 297 298 299 300 296 297 299 297 300 304 299 298 299 293 294 286 285 285 288 291 296 302 307 308 312 315 316 316 317 318 320 321 322 323 324 325 328 331 333 334 336 338 340 341 342 343 344 344 345 345 346 347 348 347 347 345 342 339 338 336 335 334
294 294 299 303 302 302 300 300 298 297 295 296 293 292 296 295 292 285 286 289 290 299 310 310 310 314 317 318 318 318 319 320 321 322 324 324 324 327 330 333 334 335 337 339 341 342 342 342 343 343 344 345 346 346 347 346 345 342 340 338 337 336 334
297 300 303 304 304 305 303 303 300 300 297 296 292 288 291 293 295 296 292 290 293 301 308 311 312 315 318 319 319 319 320 320 321 322 324 325 325 326 328 331 333 334 335 338 339 341 341 341 342 343 343 344 345 346 346 346 344 342 341 339 338 337 334
300 303 303 303 303 303 300 301 301 300 297 298 296 293 293 295 293 293 292 291 289 299 309 312 313 314 316 318 319 319 320 321 322 322 323 323 324 325 328 330 332 333 335 337 338 339 340 340 340 341 343 343 345 345 346 345 344 343 342 340 338 337 335
294 298 299 299 301 302 297 295 299 301 300 301 297 297 295 296 293 294 291 288 290 300 312 311 312 314 316 317 319 319 319 319 321 322 322 323 324 325 326 327 328 330 332 335 337 338 339 340 340 341 342 343 343 344 345 345 344 344 342 341 339 337 335
287 287 288 289 292 295 297 298 299 301 301 299 298 296 296 291 294 295 291 289 292 300 305 310 311 312 313 316 317 318 319 319 320 321 321 322 323 324 325 326 326 327 331 334 336 338 339 340 340 340 341 342 343 344 345 345 344 343 342 341 339 338 336
292 293 292 296 300 296 297 297 300 299 302 302 301 296 292 293 289 294 289 295 297 302 306 306 309 310 312 312 311 315 316 316 318 319 320 321 323 324 325 326 327 327 329 332 335 337 338 339 340 340 341 341 342 343 344 345 345 343 342 340 339 337 336
299 298 298 299 301 298 298 298 298 299 300 300 299 298 297 296 294 289 292 294 302 302 304 306 308 310 312 314 314 315 316 316 315 316 319 328 322 324 325 325 325 326 328 331 333 335 337 338 339 340 341 341 342 343 343 344 344 343 342 340 338 337 336
300 301 301 301 301 300 299 299 299 299 299 298 299 299 298 299 299 295 295 296 302 303 306 308 310 311 312 312 312 315 317 316 315 316 319 321 322 323 324 324 325 326 327 329 332 334 336 337 338 338 340 340 341 342 343 343 343 342 342 339 337 336 334
299 299 300 302 301 301 301 299 299 300 300 299 301 300 300 301 299 301 301 299 303 306 308 309 311 314 315 314 312 311 312 314 316 317 319 321 322 323 323 324 324 326 328 329 331 333 335 336 337 338 339 339 340 341 342 342 342 342 340 338 336 334 332
296 298 300 300 300 300 299 300 300 300 299 299 300 301 301 303 301 301 300 301 303 307 309 312 312 310 309 308 310 311 313 314 317 318 319 321 322 323 324 324 324 326 328 329 331 332 334 335 337 338 338 340 340 341 341 342 342 342 340 337 333 331 332
294 298 298 299 299 299 299 299 300 299 297 296 297 298 299 300 300 299 300 299 301 307 307 309 306 307 309 309 309 310 311 314 317 318 319 321 322 323 324 324 325 325 327 328 328 330 333 335 336 338 338 339 340 340 340 341 341 341 338 334 331 332 333
292 297 299 298 298 299 296 297 300 300 298 299 301 305 306 304 302 298 297 299 306 308 310 307 306 307 308 308 309 310 311 314 316 317 319 321 322 324 324 325 326 326 327 328 328 329 331 334 336 338 339 339 339 340 340 341 341 338 335 332 332 332 333
291 296 297 297 295 290 290 299 300 303 303 304 302 302 303 307 305 300 302 305 305 308 307 307 306 307 308 310 312 313 314 313 313 314 316 318 321 323 324 326 327 328 328 329 329 329 330 333 336 339 340 340 341 341 340 338 337 335 334 333 332 332 332
291 295 297 294 289 290 302 308 309 307 307 308 306 305 306 308 309 309 306 307 307 309 310 309 309 311 311 312 313 314 315 315 315 314 314 316 320 322 323 324 326 327 329 330 330 329 330 331 333 336 338 339 339 338 337 337 336 335 334 333 332 332 332
292 292 292 289 290 300 309 309 310 312 310 308 307 305 306 308 309 308 307 306 307 308 309 310 312 313 312 313 314 314 315 316 316 316 316 318 319 319 322 323 324 325 327 329 331 332 334 332 332 335 337 338 337 334 335 335 334 334 333 332 332 333 332
292 289 289 292 302 304 306 306 310 306 306 306 305 299 302 308 309 308 306 307 309 310 310 312 313 313 313 312 312 315 315 317 317 319 318 318 317 317 319 323 324 327 328 330 331 332 333 334 334 335 336 337 334 332 333 333 334 333 333 332 332 332 332
294 290 289 294 293 292 298 306 312 315 310 308 310 307 302 308 310 311 309 308 309 310 311 311 311 314 311 308 310 314 314 319 319 317 317 318 317 317 318 321 324 321 326 331 334 335 334 335 336 335 335 334 331 331 331 331 332 332 332 332 333 333 333
294 292 289 287 289 295 302 306 310 312 312 308 310 305 299 306 310 311 310 309 311 311 311 312 314 312 307 305 309 311 314 317 317 317 316 318 320 324 325 330 331 329 328 332 334 335 334 335 334 334 332 331 330 330 330 331 332 331 331 331 333 333 334
297 293 290 291 295 298 306 309 311 313 314 312 307 296 295 306 312 312 311 310 309 310 310 310 310 308 305 305 309 310 314 315 318 317 319 320 320 322 328 333 335 335 335 334 329 330 332 333 331 331 330 330 330 330 330 330 330 331 332 332 333 335 334
298 299 295 297 301 308 311 310 311 312 311 307 299 292 299 311 311 312 311 310 310 309 309 309 307 308 307 308 311 312 314 315 315 316 318 320 322 326 330 333 340 333 331 331 332 332 333 332 330 330 330 329 329 330 330 329 329 331 333 333 333 333 333
297 295 294 296 299 307 310 312 311 313 305 295 295 305 311 313 312 312 311 311 311 310 310 310 308 310 312 316 313 315 315 314 315 315 318 324 328 333 335 333 329 327 327 328 329 329 330 330 330 330 330 330 329 328 328 328 330 332 332 332 332 332 331
299 296 293 291 293 304 310 310 310 311 300 300 305 311 312 316 313 314 314 312 311 312 311 311 311 312 312 313 314 315 317 317 317 319 320 317 327 328 327 327 327 326 325 328 328 327 329 330 330 330 330 330 328 329 327 329 331 331 331 331 330 331 330
294 293 290 291 300 306 312 309 306 309 309 311 313 312 310 312 313 314 315 315 315 315 315 314 315 314 314 315 315 317 317 317 317 318 320 324 326 328 330 328 326 327 323 324 325 325 327 328 328 329 329 330 329 328 328 329 328 329 329 329 329 329 330
300 298 301 306 309 310 311 312 310 310 311 313 313 312 311 310 310 313 313 314 316 317 317 316 316 316 318 318 318 318 318 318 317 318 319 320 322 326 327 326 326 323 322 322 322 324 325 327 327 327 327 327 328 327 326 328 327 328 329 329 328 328 328
311 310 310 313 309 309 310 313 313 312 312 312 312 311 310 310 311 311 310 311 312 314 318 318 317 317 317 318 319 320 321 321 320 321 319 320 322 325 326 325 326 323 321 322 323 324 324 325 325 326 325 326 325 324 325 328 326 327 328 329 328 327 327
298 296 306 308 309 310 310 311 312 313 313 312 312 312 312 312 313 312 311 311 311 311 312 312 312 315 318 319 321 321 322 323 323 322 320 320 321 322 323 325 327 321 322 322 323 324 323 322 324 325 323 324 325 326 327 326 327 327 328 329 329 328 326
299 303 307 310 310 310 311 309 309 309 310 313 315 315 316 316 318 317 316 316 314 314 313 312 312 311 312 315 318 321 325 324 324 323 323 322 322 323 323 325 324 321 321 320 323 323 323 322 324 324 325 327 327 327 327 328 328 328 328 328 327 326 325
307 310 310 312 309 310 311 311 310 310 311 310 311 311 313 313 313 314 314 315 315 315 314 315 314 314 313 315 319 321 322 322 320 320 322 324 322 321 323 324 323 319 320 321 321 324 323 322 325 325 324 324 325 325 327 328 329 328 329 330 327 325 325
302 303 306 312 305 304 310 313 312 311 310 310 310 311 312 311 313 313 312 312 313 313 314 314 314 313 316 316 320 322 321 320 320 320 320 322 324 324 324 325 324 324 323 322 322 323 322 322 320 317 316 316 316 318 321 324 327 326 326 324 323 323 324
301 308 311 310 309 308 310 313 314 312 312 312 311 313 312 312 312 311 311 310 310 311 312 317 315 312 315 316 318 321 324 322 323 324 323 323 324 324 324 322 320 320 319 322 321 322 320 317 315 315 314 314 314 315 316 318 319 321 322 322 322 323 325
313 313 311 311 307 305 306 308 309 310 311 311 310 310 310 309 309 309 308 307 307 306 308 309 311 313 315 318 320 319 319 320 323 325 326 326 324 325 324 322 320 320 319 320 321 320 317 316 316 317 317 317 317 317 316 317 318 319 320 320 319 320 323
309 311 308 308 307 307 308 308 309 310 312 312 311 312 310 309 310 310 309 309 308 309 310 311 313 315 315 317 320 320 319 320 322 324 326 326 326 323 322 321 318 318 317 319 320 318 316 317 318 318 318 319 321 322 321 320 319 319 320 321 322 323 324
Wind_Speed
8 7 5 5 8 8 3 6 7 8 8 9 2 2 0 3 2 4 2 2 4 7 5 3 6 3 6 10 11 12 14 13 11 12 14 15 15 15 15 16 15 15 14 14 15 16 15 14 14 15 17 17 19 17 16 17 16 14 15 15 14 13 12
9 9 7 7 10 7 4 5 9 2 3 3 6 7 0 1 5 5 4 9 3 4 6 2 1 2 5 12 14 16 13 12 14 15 14 15 16 17 18 17 16 17 18 19 17 16 17 17 18 18 19 18 17 17 18 19 17 18 17 16 14 13 13
6 5 5 8 7 10 16 12 7 6 3 5 2 3 3 2 2 2 3 3 3 8 5 1 6 8 9 10 10 9 11 14 16 15 16 15 15 14 13 14 13 13 14 16 17 18 18 18 18 19 19 17 15 14 15 17 19 20 18 15 13 12 13
5 4 7 13 13 4 1 5 3 1 6 5 5 7 4 5 4 2 5 1 6 7 5 11 11 12 10 8 9 14 16 18 16 15 15 15 14 14 14 14 14 15 17 18 19 19 18 18 17 16 16 14 16 17 16 16 15 12 11 13 13 14 13
1 8 5 12 11 8 4 5 4 2 1 3 4 1 5 6 5 5 4 3 4 7 8 10 8 10 13 17 17 15 15 16 16 15 15 15 15 14 14 15 15 16 17 18 18 18 18 18 17 16 15 17 18 16 16 16 16 16 16 16 14 13 12
4 6 6 7 8 10 9 10 10 8 7 4 6 9 1 2 3 4 3 7 6 9 4 10 8 9 13 15 18 17 15 15 14 14 15 15 15 15 16 16 15 16 16 17 17 16 14 13 13 14 15 15 15 15 16 16 15 14 16 15 15 14 13
10 10 10 5 8 12 13 12 10 10 5 6 5 5 4 1 1 5 4 2 8 8 4 5 6 7 13 15 13 13 14 16 15 15 16 15 17 17 15 15 14 15 16 16 17 19 18 18 18 18 16 16 16 18 17 15 16 17 17 17 14 12 13
7 8 5 5 4 3 3 6 6 8 8 8 8 7 7 7 1 1 1 2 4 1 2 3 4 5 4 4 10 14 13 13 14 15 14 14 13 12 13 14 13 12 12 13 12 13 15 15 14 15 16 16 16 15 15 15 18 18 16 14 13 13 13
5 8 8 5 2 3 4 4 6 7 6 8 3 6 2 4 6 9 7 7 3 4 4 0 4 6 9 11 10 10 12 10 12 13 13 13 13 12 12 12 12 10 10 11 14 15 15 15 16 15 16 16 15 16 15 16 17 18 16 13 13 13 14
10 9 12 10 8 6 3 2 5 7 11 8 5 5 2 5 1 4 4 3 8 8 4 0 4 6 6 6 6 5 7 11 12 11 11 11 11 13 14 14 10 11 14 14 15 15 15 16 15 16 16 16 16 16 17 17 17 15 15 13 14 14 13
11 10 7 6 3 3 5 5 9 9 10 14 9 6 7 9 4 6 7 8 4 2 1 4 7 8 11 9 7 10 10 9 9 11 12 12 13 14 15 14 13 11 10 14 16 17 16 16 16 15 16 17 16 16 17 17 16 15 15 14 14 13 13
15 12 11 7 6 6 7 8 7 9 10 10 10 10 9 7 11 7 6 5 8 11 6 7 8 9 10 11 14 14 11 11 11 9 9 10 9 9 11 11 12 14 15 15 15 16 16 16 16 16 16 17 18 18 18 17 16 14 12 13 13 13 11
16 15 15 11 3 4 4 7 10 12 11 10 14 11 8 12 11 12 7 8 9 10 12 13 14 15 15 13 12 17 18 10 6 7 8 11 13 13 14 14 13 14 14 14 15 16 17 17 16 17 15 15 14 13 13 13 13 14 13 12 11 8 7
13 12 15 15 14 11 7 6 8 12 15 15 16 12 9 16 8 11 11 13 14 10 12 13 16 15 17 14 7 4 4 10 11 10 11 13 14 14 15 13 12 13 14 14 15 15 15 15 16 15 14 13 14 15 15 14 14 13 10 10 8 13 17
9 11 13 14 13 13 14 12 9 11 10 13 15 11 8 9 2 1 5 11 12 8 7 16 11 3 6 7 8 13 12 9 11 12 13 14 14 13 11 10 11 12 12 12 12 12 14 15 15 15 15 15 14 15 13 13 13 11 10 9 15 18 18
7 9 12 14 10 9 11 13 13 11 8 6 4 5 5 7 7 4 6 5 8 9 1 3 4 6 8 11 11 10 9 10 12 14 13 11 12 11 10 10 8 8 8 7 8 10 10 11 12 12 12 13 12 13 13 13 13 9 9 13 15 14 15
8 9 9 12 6 3 6 11 12 11 5 5 4 2 2 2 6 10 8 10 11 8 4 6 5 7 8 7 8 9 8 9 12 13 13 12 11 11 10 8 8 8 9 9 8 7 6 8 10 12 12 10 11 13 13 14 6 9 12 14 15 16 16
7 6 6 6 6 9 7 4 4 8 10 10 7 2 0 1 4 6 7 9 6 7 6 8 8 11 11 12 7 2 10 10 6 6 7 8 8 6 5 6 7 6 4 4 6 8 10 10 11 9 7 10 10 7 3 4 8 10 13 11 11 11 9
7 3 6 7 10 7 3 4 3 3 5 12 14 6 2 2 2 1 1 3 8 10 12 11 6 3 4 4 5 5 4 6 10 9 6 5 5 7 8 7 7 7 9 9 8 6 8 10 7 6 7 9 6 7 8 9 9 11 12 14 15 16 18
4 4 5 8 4 3 2 2 3 5 8 4 12 10 8 8 3 1 1 3 5 3 8 9 10 11 8 6 5 5 5 7 10 8 8 7 7 7 7 8 7 6 6 8 9 10 5 3 5 7 9 6 6 6 9 11 12 14 15 16 16 16 18
7 5 6 4 1 2 2 2 2 4 2 4 10 5 4 3 8 4 3 3 3 1 5 8 9 10 10 10 3 1 8 6 7 13 10 11 9 8 6 6 7 7 5 5 5 3 4 6 7 9 6 7 9 10 10 11 13 14 15 15 16 17 18
4 7 5 1 2 5 4 4 4 0 3 6 6 10 2 6 10 6 2 10 7 7 4 6 8 11 15 8 2 1 2 3 5 2 6 6 6 5 4 3 3 4 4 3 4 6 5 7 8 6 7 9 8 8 9 10 13 13 14 14 14 14 14
3 3 6 3 3 2 3 5 5 8 7 2 2 11 1 2 6 7 2 7 10 11 9 3 3 13 11 6 4 1 1 3 4 9 6 7 7 8 8 10 7 5 6 6 5 4 4 5 5 7 9 11 11 10 10 11 12 13 13 13 15 19 20
2 4 4 2 2 1 3 5 6 7 10 8 6 8 3 4 9 5 6 7 3 4 5 8 10 9 9 4 1 5 2 2 2 3 8 6 5 4 3 1 2 4 4 5 3 4 6 8 6 9 11 12 12 12 12 11 13 15 17 18 19 16 15
7 7 1 1 1 2 3 5 8 8 3 4 11 8 3 2 5 4 8 6 4 4 7 7 9 2 4 3 1 2 5 8 7 5 2 2 3 7 5 6 4 5 4 5 8 9 8 7 7 9 11 12 12 12 12 13 15 18 17 15 13 13 12
3 2 5 0 3 2 3 8 9 5 2 5 8 2 1 3 4 5 8 10 6 9 10 9 6 3 3 3 6 8 7 5 3 3 1 3 3 3 3 3 4 4 4 1 2 4 5 9 8 9 11 12 12 11 12 15 19 12 10 12 12 12 13
1 5 6 2 1 3 6 14 5 5 6 4 4 4 6 4 4 8 9 7 5 8 10 7 7 7 8 8 7 7 6 6 6 6 5 3 1 2 1 1 0 2 3 4 6 4 4 5 6 7 9 11 10 11 13 18 9 9 11 11 11 10 10
2 4 2 2 1 7 12 2 4 3 3 6 7 7 8 4 4 6 9 8 6 7 10 9 9 7 8 8 8 7 8 9 8 6 3 1 0 0 1 0 2 1 1 1 0 1 0 1 1 2 6 10 9 11 16 3 5 6 8 8 8 10 10
2 1 2 2 3 5 6 7 10 7 8 7 7 9 9 9 6 3 10 8 7 7 9 10 9 9 6 5 4 6 4 5 5 5 6 6 6 3 0 2 2 2 3 3 3 3 3 3 1 1 2 3 3 3 4 4 4 7 8 8 8 8 8
0 5 2 2 3 4 6 8 9 12 9 5 5 9 10 5 6 8 10 7 9 7 6 11 10 8 6 8 7 7 6 6 6 6 7 6 4 3 3 1 0 1 2 2 2 3 2 1 1 2 3 3 1 1 3 4 5 6 7 7 7 6 5
6 2 5 6 3 5 7 6 7 6 6 5 5 8 6 4 3 5 6 9 8 7 8 10 9 8 4 5 4 4 4 3 3 5 5 4 4 4 3 2 1 2 3 3 2 3 2 3 3 3 4 5 5 6 6 6 6 7 7 7 7 6 6
6 7 3 2 4 3 3 3 6 7 5 5 5 4 4 5 1 1 2 2 7 6 8 6 9 8 7 9 7 6 4 3 4 4 5 7 6 4 3 1 3 2 2 2 1 2 4 3 4 4 5 5 5 5 7 7 7 8 7 7 8 8 10
3 6 3 1 4 10 8 6 5 3 5 8 7 5 6 4 6 7 8 7 6 6 6 6 8 6 3 4 4 4 1 1 2 4 4 4 6 5 2 2 2 1 2 3 4 5 4 3 5 7 7 6 6 7 6 7 8 8 8 7 7 8 8
10 9 9 7 11 2 3 4 2 3 4 9 9 10 10 7 6 4 6 5 5 7 6 6 5 5 2 1 3 5 4 2 4 5 4 3 6 7 6 1 2 3 3 5 6 6 4 5 8 9 9 8 8 9 10 10 12 11 10 9 8 6 4
8 2 6 4 11 9 3 1 1 2 4 11 13 9 5 3 4 5 6 8 10 10 9 6 5 4 4 6 2 1 3 6 7 6 5 10 10 6 2 3 3 4 5 6 7 7 7 8 9 10 10 9 10 10 10 10 12 13 11 11 9 7 6
8 6 8 6 8 11 6 4 5 6 5 12 11 8 8 8 8 8 9 7 8 7 7 7 5 4 6 5 5 4 3 5 5 5 4 2 1 1 1 2 3 5 6 7 8 10 8 9 10 10 10 8 9 9 10 11 11 10 9 8 7 6 7
8 4 9 10 13 11 8 7 7 7 4 8 10 9 9 10 9 9 10 7 5 7 7 7 6 7 8 9 9 6 5 4 4 4 4 3 2 2 2 2 4 5 7 6 7 9 9 10 9 7 8 6 6 8 10 11 13 12 10 10 8 3 3
Wind_Direction
218 214 170 206 155 213 218 122 203 213 166 157 114 23 248 88 54 245 193 308 306 313 326 319 333 162 190 169 187 191 194 188 173 184 190 193 191 192 192 194 193 190 190 191 191 191 193 193 191 192 192 192 194 192 193 197 197 193 193 192 189 185 178
244 214 202 205 190 164 130 186 224 181 115 109 155 213 19 97 170 250 144 195 228 145 238 306 358 146 175 173 182 195 187 174 182 193 192 192 193 195 194 194 191 188 188 189 192 195 193 192 193 196 197 197 195 193 194 194 194 195 197 190 189 184 180
217 206 201 265 256 196 211 225 169 167 235 251 297 117 208 137 221 247 252 215 249 181 234 208 222 185 194 193 182 170 176 182 193 194 196 195 196 192 193 195 190 191 191 193 194 195 196 197 198 198 199 195 194 197 199 197 198 199 193 190 188 187 183
192 179 155 224 232 250 268 65 175 129 125 173 157 199 174 145 232 110 284 100 219 207 223 202 199 196 181 159 164 187 186 188 190 195 192 191 193 194 194 193 193 192 193 194 195 197 196 197 199 202 199 196 198 199 197 201 204 198 192 193 190 188 190
187 215 194 215 207 212 206 199 214 197 186 225 120 64 139 181 173 183 184 262 276 251 212 187 209 179 170 169 183 186 189 190 193 191 189 193 193 194 195 194 194 194 194 197 199 199 200 198 199 196 194 197 201 198 199 200 197 195 195 195 191 194 185
221 243 234 200 191 185 192 190 212 179 139 132 186 246 36 108 137 199 150 242 262 265 194 197 197 190 176 186 178 185 184 185 187 190 196 191 194 198 196 196 195 194 195 197 199 199 202 198 198 198 200 202 202 199 201 200 199 198 197 195 195 192 190
234 231 245 220 200 194 190 180 218 186 157 130 133 191 252 16 280 118 149 159 269 242 208 205 211 177 190 187 179 179 181 185 186 191 194 197 195 195 197 198 196 195 194 192 194 196 195 196 199 198 199 200 201 202 200 199 198 202 200 198 193 187 188
277 271 263 270 231 189 268 248 194 159 186 175 170 167 184 175 203 125 45 206 252 282 272 253 220 198 186 164 175 181 186 184 186 188 193 197 201 204 200 199 198 191 188 194 194 196 200 202 200 200 201 203 203 203 201 199 203 204 202 197 190 188 190
266 282 312 299 346 142 181 198 208 195 184 175 142 107 101 172 213 175 153 224 275 275 327 230 137 150 169 182 197 187 181 184 185 190 193 195 197 196 202 205 198 184 176 183 194 199 200 200 202 201 202 204 203 202 201 202 206 205 201 194 189 190 191
210 221 217 218 252 220 224 223 198 193 178 161 131 186 145 185 256 133 157 237 250 277 323 207 159 162 193 205 183 182 189 182 183 190 192 192 188 194 200 204 192 181 186 190 195 198 200 202 201 201 203 203 204 204 204 204 205 201 201 193 193 191 188
213 218 209 242 133 107 183 219 191 205 198 180 174 118 136 196 197 180 225 180 214 278 216 206 204 179 180 191 190 191 202 206 194 186 184 187 188 192 196 201 196 191 191 196 196 198 200 200 201 201 201 203 204 204 207 206 205 201 199 193 190 189 187
215 201 213 209 171 194 204 191 215 200 196 188 167 167 203 160 115 222 259 205 157 219 216 216 215 211 202 196 189 195 202 200 182 179 182 183 187 195 200 201 195 194 195 197 199 200 203 204 204 204 203 203 203 203 206 205 202 199 195 193 190 187 177
219 212 224 221 179 192 213 213 194 197 197 184 187 198 182 143 192 202 231 179 187 214 206 202 200 193 199 197 201 202 199 179 156 164 170 180 190 196 199 202 199 197 198 201 201 203 206 205 204 206 206 208 209 211 213 208 203 202 194 188 184 163 106
223 223 222 235 232 244 236 227 238 209 187 191 192 200 169 177 189 196 184 176 201 198 205 201 206 204 197 199 186 99 137 187 184 175 179 188 194 197 200 201 200 201 205 203 204 204 205 205 207 207 208 208 207 206 207 204 202 201 179 179 138 99 107
234 225 220 228 229 230 243 242 221 229 219 199 200 189 177 190 193 104 151 177 219 249 215 203 204 129 61 79 151 186 192 177 180 182 188 193 196 200 202 199 201 206 209 211 209 206 207 206 206 206 207 208 206 209 208 204 203 192 171 128 115 133 142
245 225 211 224 223 222 234 247 246 227 185 200 209 195 191 160 195 142 113 177 247 256 180 80 100 149 156 171 181 188 191 186 182 186 189 190 194 195 198 201 201 207 213 216 214 215 215 214 213 211 211 211 205 208 207 204 202 171 135 125 139 141 145
228 230 196 203 184 195 258 248 241 232 194 170 154 103 128 224 143 127 167 215 217 211 154 142 175 169 187 183 184 185 191 187 182 181 184 190 190 193 193 190 198 202 207 210 210 214 213 213 212 214 212 208 210 209 204 209 162 123 126 139 143 148 153
226 223 163 123 130 203 229 234 190 166 166 155 131 121 239 205 149 197 201 221 181 119 150 172 186 175 190 190 196 185 173 158 174 185 185 186 186 180 184 193 195 206 202 205 214 214 214 215 215 215 205 209 217 212 198 91 120 135 137 133 123 118 106
220 181 118 143 201 222 239 319 262 102 84 110 111 117 89 58 70 27 308 264 162 187 177 170 140 112 83 100 131 119 131 157 155 162 164 161 162 173 178 193 205 205 202 206 213 217 218 216 209 184 192 200 183 160 151 143 134 133 129 128 136 144 149
56 100 157 199 230 240 301 54 44 106 122 138 94 47 10 11 11 147 165 286 298 212 150 144 148 132 127 93 101 140 136 147 136 138 156 180 166 174 187 181 202 198 205 206 203 215 214 183 193 193 203 181 159 143 134 142 147 146 149 151 157 159 166
162 175 169 194 180 59 19 54 22 359 130 131 109 108 344 356 356 352 126 64 81 105 130 136 133 131 109 100 88 204 156 162 162 151 166 164 181 181 189 180 195 204 201 206 212 171 165 178 182 202 176 151 147 146 151 152 155 158 157 163 169 174 177
125 124 92 80 46 142 252 240 264 331 288 262 146 101 347 335 355 351 259 125 112 101 90 121 143 120 104 101 120 329 341 183 156 178 146 154 160 174 170 207 231 200 205 189 182 183 170 183 191 166 151 148 145 148 153 154 158 166 169 172 172 173 169
49 67 125 168 131 241 213 275 303 320 332 323 241 78 59 300 350 338 25 98 122 128 129 149 140 120 122 149 188 269 244 192 178 147 160 161 167 171 161 164 173 197 188 175 172 167 157 192 187 156 150 146 146 161 164 168 167 166 176 176 176 181 182
85 137 83 96 208 138 338 299 321 313 312 260 84 98 228 298 340 334 50 50 27 59 77 92 67 89 115 160 277 313 336 124 29 102 130 121 127 126 92 49 157 156 136 111 113 160 187 202 179 159 155 155 161 166 177 167 174 183 187 190 188 181 172
51 75 77 27 351 297 291 304 311 314 318 68 110 164 223 328 352 51 82 60 65 80 64 72 84 21 154 180 242 28 62 58 37 27 42 108 141 147 158 158 137 133 148 161 172 191 202 188 174 165 156 158 171 176 171 179 190 196 193 186 177 172 165
76 113 85 189 237 228 288 316 317 291 47 74 139 204 177 76 42 30 76 89 76 82 74 80 87 82 44 58 55 58 50 74 52 27 18 84 73 39 79 113 121 142 147 204 220 208 184 186 180 171 166 170 178 174 178 193 206 189 172 174 169 165 167
59 48 70 12 58 269 1 323 336 25 99 211 193 121 25 22 58 80 60 67 62 81 83 74 82 66 46 42 40 36 31 33 24 20 3 0 12 113 109 132 229 140 172 199 220 216 189 192 185 179 176 175 176 181 190 209 185 163 168 159 158 157 152
108 63 103 182 236 283 322 346 97 325 71 136 105 103 86 26 40 62 80 50 50 61 85 81 72 72 73 43 29 44 30 18 5 355 341 335 359 10 320 120 181 166 164 139 86 19 7 329 310 257 198 186 180 186 211 149 126 133 135 142 143 154 160
106 142 204 310 309 279 317 76 93 84 65 78 113 105 111 108 68 77 73 68 53 52 70 66 67 62 58 84 68 71 17 6 7 352 345 334 325 315 182 154 152 135 153 150 138 142 155 169 189 339 342 318 245 214 31 93 108 125 133 137 143 152 159
74 62 67 341 346 358 40 52 84 99 91 67 86 101 103 88 114 96 94 87 76 57 59 77 47 44 38 56 44 37 23 8 335 342 340 345 336 344 340 339 350 93 113 114 130 143 138 109 80 39 42 67 93 130 130 103 116 116 118 116 119 132 144
70 59 323 15 6 5 12 59 44 56 86 106 112 93 83 88 49 79 100 103 100 94 79 83 87 76 59 53 35 50 57 30 346 333 321 308 309 306 290 262 194 116 133 110 133 159 109 50 75 74 84 92 118 119 118 125 115 121 116 121 119 116 87
120 162 200 6 4 9 8 27 88 84 80 83 73 87 118 109 32 154 130 67 61 62 57 65 75 60 34 43 33 9 22 25 7 349 324 315 308 307 271 221 160 132 102 112 114 76 90 113 107 96 96 97 108 120 135 141 135 122 122 122 125 121 117
64 73 67 161 48 30 22 28 29 43 86 87 72 66 72 79 76 50 44 62 89 86 91 71 70 70 67 107 101 83 41 63 34 7 311 287 286 281 287 43 58 89 110 104 107 122 130 116 103 98 96 95 98 103 114 124 125 116 117 122 120 132 137
152 159 181 161 102 74 341 16 2 56 49 76 69 52 32 20 56 71 78 51 49 67 63 67 73 71 359 347 131 152 162 202 220 204 226 280 263 255 252 209 132 120 121 132 130 125 116 111 109 105 99 95 90 90 92 93 99 100 98 94 92 88 85
178 198 140 144 124 122 141 176 275 24 61 74 70 74 93 64 40 44 59 53 36 32 22 24 53 24 347 324 319 190 200 232 226 220 191 217 228 226 226 137 144 133 139 135 127 122 126 122 115 109 106 108 104 98 95 97 100 104 106 101 102 102 105
68 109 142 157 115 112 114 95 73 55 57 90 91 85 81 77 70 63 60 53 62 44 33 28 25 25 21 12 16 353 290 270 282 274 249 228 265 292 269 227 175 145 136 139 134 134 134 128 124 122 117 106 99 99 97 96 88 84 85 85 90 108 107
112 117 104 98 102 103 103 92 78 67 52 79 84 77 75 74 68 71 73 67 65 70 58 37 27 31 32 21 26 19 346 316 319 283 288 272 236 188 202 200 196 163 151 146 139 138 139 137 135 132 123 126 120 116 118 120 122 122 123 126 131 131 184